User: anonymous   Login
Location: Nairn
(57.5833°N, 3.8667°W)
Time: 10:55:30
(UTC+00:00)
Language:

Cosmos 2266 Rocket - Orbit

View from above orbital plane
View from above orbital plane
View from above satellite
View from above satellite

Ground track
Ground track

The orbit data is extracted from the following two-line orbital elements,

1 22889U 93070B   20296.83666735 +.00000142 +00000-0 +12477-3 0  9992
2 22889 082.9418 127.3974 0050775 040.9439 319.5513 13.77930535355899
Epoch (UTC): 22 October 2020 20:04:48
Eccentricity: 0.0050775
inclination: 82.9418°
perigee height: 934 km
apogee height: 1008 km
right ascension of ascending node: 127.3974°
argument of perigee: 40.9439°
revolutions per day: 13.77930535
mean anomaly at epoch: 319.5513°
orbit number at epoch: 35589

The dashed part of the orbit path shows where the satellite is in the earth's shadow,  

DLR